Lamar, CO

4:43 PM MDT on April 30, 2017 (GMT -0600)
Lamar Municipal

Weather History for KLAA - May, 2013

Change the Weather History Date:

Saturday, May 4, 2013

  Actual Average Record
Temperature  
Mean Temperature 46 °F 58 °F  
Max Temperature 67 °F 75 °F 98 °F (1936)
Min Temperature 24 °F 41 °F 24 °F (2013)
Degree Days  
Heating Degree Days 19 7  
Month to date heating degree days 86 31  
Since 1 July heating degree days 5406 5431  
Cooling Degree Days 0 1  
Month to date cooling degree days 0 2  
Year to date cooling degree days 2 7  
Moisture  
Dew Point 17 °F    
Average Humidity 44    
Maximum Humidity 75    
Minimum Humidity 12    
Precipitation  
Precipitation 0.00 in 0.04 in 0.78 in (1969)
Month to date precipitation 0.04  
Year to date precipitation 0.37  
Sea Level Pressure  
Sea Level Pressure 30.08 in    
Wind  
Wind Speed 8 mph (NE)    
Max Wind Speed 22 mph    
Max Gust Speed 29 mph    
Visibility 10 miles    
Events      
T = Trace of Precipitation, MM = Missing Value Source: NWS Daily Summary

Daily Weather History Graph

Daily Weather History Graph

Search for Another Location

Airport or City:

Trip Planner

Search our weather history database for the weather conditions in past years. The results will help you decide how hot, cold, wet, or windy it might be!

Date:

Astronomy

May. 04, 2013 Rise Set
Actual Time 5:50 AM MDT 7:44 PM MDT
Civil Twilight 5:22 AM MDT 8:13 PM MDT
Nautical Twilight 4:47 AM MDT 8:48 PM MDT
Astronomical Twilight 4:10 AM MDT 9:25 PM MDT
Moon 2:45 AM MDT (5/4) 2:49 PM MDT (5/4)
Length of Visible Light 14h 51m
Length of Day
13h 54m
Waning Crescent, 26% of the Moon is Illuminated
May 4
Waning Crescent
May 9
New
May 17
First Quarter
May 24
Full
May 31
Last Quarter

Hourly Weather History & Observations

Time (MDT) Temp. Windchill Dew Point Humidity Pressure Visibility Wind Dir Wind Speed Gust Speed Precip Events Conditions
12:53 AM 35.1 °F - 21.0 °F 57% 30.08 in 10.0 mi Calm Calm - N/A   Clear
1:53 AM 30.9 °F 25.2 °F 19.9 °F 64% 30.06 in 10.0 mi SSW 5.8 mph - N/A   Clear
2:53 AM 28.9 °F 21.1 °F 19.9 °F 69% 30.06 in 10.0 mi SSW 8.1 mph - N/A   Clear
3:53 AM 28.9 °F 23.9 °F 19.9 °F 69% 30.06 in 10.0 mi SSW 4.6 mph - N/A   Clear
4:53 AM 30.9 °F - 19.0 °F 61% 30.06 in 10.0 mi Calm Calm - N/A   Clear
5:53 AM 26.1 °F 21.9 °F 19.0 °F 75% 30.07 in 10.0 mi SW 3.5 mph - N/A   Clear
6:53 AM 33.1 °F - 21.0 °F 61% 30.09 in 10.0 mi Calm Calm - N/A   Clear
7:53 AM 39.9 °F 37.8 °F 23.0 °F 51% 30.10 in 10.0 mi ENE 3.5 mph - N/A   Clear
8:53 AM 46.0 °F 43.9 °F 21.9 °F 39% 30.10 in 10.0 mi East 4.6 mph - N/A   Clear
9:53 AM 51.1 °F - 21.0 °F 31% 30.10 in 10.0 mi East 5.8 mph - N/A   Clear
10:53 AM 55.9 °F - 19.9 °F 25% 30.09 in 10.0 mi NNE 12.7 mph 16.1 mph N/A   Clear
11:53 AM 60.1 °F - 19.0 °F 20% 30.07 in 10.0 mi NE 15.0 mph 18.4 mph N/A   Clear
12:53 PM 63.0 °F - 19.0 °F 18% 30.06 in 10.0 mi North 12.7 mph 26.5 mph N/A   Clear
1:53 PM 64.9 °F - 17.1 °F 16% 30.05 in 10.0 mi NNE 19.6 mph 23.0 mph N/A   Clear
2:53 PM 66.0 °F - 16.0 °F 15% 30.04 in 10.0 mi North 10.4 mph 26.5 mph N/A   Clear
3:53 PM 66.9 °F - 14.0 °F 13% 30.03 in 10.0 mi NNE 16.1 mph 21.9 mph N/A   Clear
4:53 PM 66.0 °F - 12.9 °F 13% 30.02 in 10.0 mi NNE 17.3 mph 25.3 mph N/A   Clear
5:53 PM 64.0 °F - 12.9 °F 14% 30.05 in 10.0 mi NNE 15.0 mph 28.8 mph N/A   Clear
6:53 PM 61.0 °F - 12.0 °F 15% 30.06 in 10.0 mi NE 15.0 mph - N/A   Clear
7:53 PM 55.0 °F - 12.0 °F 18% 30.08 in 10.0 mi NE 11.5 mph - N/A   Clear
8:53 PM 48.0 °F - 10.0 °F 22% 30.12 in 10.0 mi ENE 6.9 mph - N/A   Clear
9:53 PM 46.0 °F 41.9 °F 8.1 °F 21% 30.14 in 10.0 mi ENE 8.1 mph - N/A   Clear
10:53 PM 41.0 °F 37.1 °F 10.0 °F 28% 30.15 in 10.0 mi ENE 5.8 mph - N/A   Clear
11:53 PM 37.9 °F - 10.0 °F 32% 30.17 in 10.0 mi Calm Calm - N/A   Clear